EW2295 Weather Reports


time (UTC)temp
C
wind
direction
speed
KPH
gust
KPH
rain 1hr
cm
rain 24hr
cm
rain mn
cm
humidity
%
barometer
mb
20260504120105 19 250 1.6 14.5 0.00 0.00 0.00 65 1013.5
20260504110547 20 0 0.0 8.0 0.00 0.00 0.00 64 1013.5
20260504100541 19 0 0.0 11.3 0.00 0.00 0.00 65 1014.1
20260504081553 17 0 0.0 9.7 0.00 0.00 0.00 70 1014.3
20260504081045 18 0 0.0 9.7 0.00 0.00 0.00 71 1014.2
20260504080541 17 0 0.0 8.0 0.00 0.00 0.00 72 1014.3
20260504050547 13 0 0.0 0.0 0.00 0.00 0.00 83 1013.4
20260504045544 13 0 0.0 0.0 0.00 0.00 0.00 84 1013.4
20260504045049 13 0 0.0 0.0 0.00 0.00 0.00 84 1013.4
20260504044552 13 0 0.0 0.0 0.00 0.00 0.00 84 1013.3
20260504044046 13 0 0.0 0.0 0.00 0.00 0.00 84 1013.2
20260504043546 13 0 0.0 0.0 0.00 0.00 0.00 84 1013.3
20260504043050 13 0 0.0 0.0 0.00 0.00 0.00 84 1013.2
20260504042545 13 0 0.0 0.0 0.00 0.00 0.00 84 1013.2
20260504042043 13 0 0.0 0.0 0.00 0.00 0.00 84 1013.2
20260504041553 13 0 0.0 0.0 0.00 0.00 0.00 84 1013.3
20260504041046 13 0 0.0 0.0 0.00 0.00 0.00 84 1013.2
20260504040548 13 0 0.0 0.0 0.00 0.00 0.00 84 1013.2
20260504040049 13 0 0.0 0.0 0.00 0.00 0.00 84 1013.2
20260504035545 13 0 0.0 0.0 0.00 0.00 0.00 84 1013.1
20260504035047 13 0 0.0 0.0 0.00 0.00 0.00 84 1013.1
20260504034553 13 0 0.0 0.0 0.00 0.00 0.00 84 1013.1
20260504034050 13 0 0.0 0.0 0.00 0.00 0.00 84 1013.0
20260504033547 13 0 0.0 0.0 0.00 0.00 0.00 84 1013.1
20260504033104 13 0 0.0 0.0 0.00 0.00 0.00 84 1013.3
20260504032547 13 0 0.0 0.0 0.00 0.00 0.00 84 1013.3
20260504032049 13 0 0.0 0.0 0.00 0.00 0.00 84 1013.4
20260504031559 13 0 0.0 0.0 0.00 0.00 0.00 84 1013.4
20260504031050 13 0 0.0 0.0 0.00 0.00 0.00 84 1013.3
20260504030545 13 0 0.0 0.0 0.00 0.00 0.00 84 1013.4
20260504030050 13 0 0.0 0.0 0.00 0.00 0.00 84 1013.4
20260504025543 13 0 0.0 0.0 0.00 0.00 0.00 83 1013.4
20260504025046 13 0 0.0 0.0 0.00 0.00 0.00 83 1013.4
20260504024601 13 0 0.0 0.0 0.00 0.00 0.00 83 1013.4
20260504024048 13 0 0.0 0.0 0.00 0.00 0.00 83 1013.4
20260504023551 13 0 0.0 0.0 0.00 0.00 0.00 83 1013.4
20260504023048 13 0 0.0 0.0 0.00 0.00 0.00 83 1013.3
20260504022547 13 0 0.0 0.0 0.00 0.00 0.00 84 1013.4
20260504022047 13 0 0.0 8.0 0.00 0.00 0.00 84 1013.3
20260504021554 13 0 0.0 8.0 0.00 0.00 0.00 84 1013.4
20260504021047 13 0 0.0 0.0 0.00 0.00 0.00 84 1013.4
20260504020547 13 0 0.0 0.0 0.00 0.00 0.00 84 1013.4
20260504020051 13 0 0.0 0.0 0.00 0.00 0.00 84 1013.3
20260504015547 13 0 0.0 0.0 0.00 0.00 0.00 84 1013.3
20260504015047 13 0 0.0 0.0 0.00 0.00 0.00 84 1013.3
20260504014550 13 0 0.0 0.0 0.00 0.00 0.00 84 1013.3
20260504014046 13 0 0.0 0.0 0.00 0.00 0.00 84 1013.3
20260504013545 13 0 0.0 0.0 0.00 0.00 0.00 84 1013.4
20260504013103 13 0 0.0 0.0 0.00 0.00 0.00 84 1013.3
20260504012546 13 0 0.0 0.0 0.00 0.00 0.00 84 1013.2
20260504012048 13 0 0.0 0.0 0.00 0.00 0.00 84 1013.3
20260504011548 13 0 0.0 0.0 0.00 0.00 0.00 84 1013.3
20260504011047 13 0 0.0 0.0 0.00 0.00 0.00 84 1013.3
20260504010545 13 0 0.0 0.0 0.00 0.00 0.00 84 1013.2
20260504010052 13 0 0.0 0.0 0.00 0.00 0.00 85 1013.2
20260504005547 13 0 0.0 0.0 0.00 0.00 0.00 85 1013.2
20260504005048 13 0 0.0 0.0 0.00 0.00 0.00 85 1013.2
20260504004601 13 0 0.0 0.0 0.00 0.00 0.00 86 1013.2
20260504004046 13 0 0.0 0.0 0.00 0.00 0.00 86 1013.2
20260504003544 13 0 0.0 0.0 0.00 0.00 0.00 86 1013.2
20260504003100 13 0 0.0 0.0 0.00 0.00 0.00 87 1013.2
20260504002546 13 0 0.0 0.0 0.00 0.00 0.00 87 1013.3
20260504002050 13 0 0.0 0.0 0.00 0.00 0.00 86 1013.3
20260504001556 12 0 0.0 0.0 0.00 0.00 0.00 86 1013.3
20260504001048 12 0 0.0 0.0 0.00 0.00 0.00 86 1013.2
20260504000546 12 0 0.0 0.0 0.00 0.00 0.00 85 1013.2
20260504000054 12 0 0.0 0.0 0.00 0.00 0.00 84 1013.2
20260503235545 13 0 0.0 0.0 0.00 0.00 0.00 84 1013.3
20260503235048 13 0 0.0 0.0 0.00 0.00 0.00 83 1013.1
20260503234552 13 0 0.0 0.0 0.00 0.00 0.00 83 1013.1
20260503234044 13 0 0.0 0.0 0.00 0.00 0.00 82 1013.1
20260503233544 13 0 0.0 0.0 0.00 0.00 0.00 81 1013.1
20260503233055 13 0 0.0 0.0 0.00 0.00 0.00 81 1013.1
20260503232545 14 0 0.0 0.0 0.00 0.00 0.00 81 1013.0
20260503232045 14 0 0.0 1.6 0.00 0.00 0.00 81 1013.0
20260503231553 14 0 0.0 1.6 0.00 0.00 0.00 81 1013.2
20260503231050 14 0 0.0 1.6 0.00 0.00 0.00 81 1013.4
20260503230547 14 0 0.0 0.0 0.00 0.00 0.00 81 1013.4
20260503230053 14 0 0.0 0.0 0.00 0.00 0.00 81 1013.5
20260503225543 14 0 0.0 0.0 0.00 0.00 0.00 81 1013.3
20260503225044 14 0 0.0 0.0 0.00 0.00 0.00 81 1013.2
20260503224549 14 0 0.0 0.0 0.00 0.00 0.00 81 1013.2
20260503224044 14 0 0.0 0.0 0.00 0.00 0.00 82 1013.1
20260503223545 14 0 0.0 0.0 0.00 0.00 0.00 82 1013.0
20260503223052 13 0 0.0 0.0 0.00 0.00 0.00 82 1013.0
20260503222546 13 0 0.0 0.0 0.00 0.00 0.00 82 1013.0
20260503222047 13 0 0.0 0.0 0.00 0.00 0.00 82 1013.0
20260503221554 14 0 0.0 0.0 0.00 0.00 0.00 81 1012.9
20260503221045 14 0 0.0 0.0 0.00 0.00 0.00 81 1013.0
20260503220545 14 0 0.0 0.0 0.00 0.00 0.00 80 1013.0
20260503215546 14 0 0.0 6.4 0.00 0.00 0.00 79 1013.0
20260503215047 15 0 0.0 6.4 0.00 0.00 0.00 79 1013.1
20260503214550 15 0 0.0 6.4 0.00 0.00 0.00 78 1013.1
20260503214046 15 0 0.0 9.7 0.00 0.00 0.00 77 1013.1
20260503213544 15 0 0.0 9.7 0.00 0.00 0.00 77 1013.2
20260503213052 15 212 0.0 8.0 0.00 0.00 0.00 77 1013.1
20260503212544 15 0 0.0 11.3 0.00 0.00 0.00 77 1013.1
20260503212044 15 0 0.0 11.3 0.00 0.00 0.00 77 1013.1
20260503211553 15 0 0.0 8.0 0.00 0.00 0.00 77 1013.1
20260503211047 15 0 0.0 6.4 0.00 0.00 0.00 77 1013.1
20260503210545 15 0 0.0 6.4 0.00 0.00 0.00 77 1013.1
20260503210052 15 0 0.0 6.4 0.00 0.00 0.00 77 1013.0
20260503205543 15 0 0.0 8.0 0.00 0.10 0.00 77 1013.1
20260503205044 15 0 0.0 8.0 0.00 0.10 0.00 77 1013.1
20260503204552 15 0 0.0 8.0 0.00 0.10 0.00 78 1013.0
20260503204043 15 0 0.0 6.4 0.00 0.10 0.00 78 1013.1
20260503203542 15 0 0.0 8.0 0.00 0.10 0.00 78 1013.1
20260503203050 15 0 0.0 8.0 0.00 0.10 0.00 78 1013.2
20260503202543 15 0 0.0 8.0 0.00 0.10 0.00 78 1013.3
20260503202045 15 0 0.0 0.0 0.00 0.10 0.00 78 1013.2
20260503201553 15 0 0.0 0.0 0.00 0.10 0.00 78 1013.2
20260503201042 15 0 0.0 0.0 0.00 0.10 0.00 79 1013.2
20260503200545 15 0 0.0 0.0 0.00 0.10 0.00 79 1013.2
20260503200049 15 0 0.0 0.0 0.00 0.10 0.00 78 1013.2
20260503195544 15 0 0.0 0.0 0.00 0.10 0.00 78 1013.2
20260503195045 15 0 0.0 0.0 0.00 0.10 0.00 79 1013.1
20260503194550 15 0 0.0 0.0 0.00 0.10 0.00 79 1013.2
20260503194046 15 0 0.0 0.0 0.00 0.10 0.00 79 1013.1
20260503193546 15 0 0.0 0.0 0.00 0.10 0.00 78 1013.1
20260503193058 16 0 0.0 0.0 0.00 0.10 0.00 78 1012.9
20260503192545 16 0 0.0 0.0 0.00 0.10 0.00 78 1013.0
20260503192045 16 0 0.0 0.0 0.00 0.10 0.00 78 1012.9
20260503191553 16 0 0.0 0.0 0.00 0.10 0.00 78 1012.9
20260503191043 16 0 0.0 0.0 0.00 0.10 0.00 77 1012.9
20260503190549 16 0 0.0 0.0 0.00 0.10 0.00 77 1012.8
20260503190056 16 0 0.0 0.0 0.00 0.10 0.00 78 1012.9
20260503185542 16 0 0.0 0.0 0.00 0.23 0.00 78 1012.8
20260503185043 16 0 0.0 0.0 0.00 0.23 0.00 78 1012.8
20260503184603 16 0 0.0 0.0 0.00 0.23 0.00 78 1012.7
20260503184044 16 0 0.0 0.0 0.00 0.23 0.00 78 1012.6
20260503183544 16 0 0.0 0.0 0.00 0.23 0.00 78 1012.5
20260503183053 16 0 0.0 0.0 0.00 0.23 0.00 78 1012.5
20260503182548 16 0 0.0 0.0 0.00 0.23 0.00 77 1012.5
20260503182046 16 0 0.0 6.4 0.00 0.23 0.00 77 1012.4
20260503181552 16 0 0.0 12.9 0.00 0.23 0.00 76 1012.4
20260503181047 16 0 0.0 12.9 0.00 0.23 0.00 76 1012.4
20260503180546 16 239 0.0 12.9 0.00 0.23 0.00 76 1012.3
20260503180049 16 215 0.0 12.9 0.00 0.23 0.00 76 1012.3
20260503175545 16 0 0.0 17.7 0.00 0.23 0.00 76 1012.4
20260503175045 16 0 1.6 17.7 0.00 0.23 0.00 76 1012.4
20260503174612 16 0 0.0 22.5 0.00 0.23 0.00 76 1012.4
20260503174045 16 0 1.6 22.5 0.00 0.23 0.00 76 1012.5
20260503173545 16 228 4.8 19.3 0.00 0.23 0.00 75 1012.5
20260503173050 16 249 0.0 24.1 0.00 0.23 0.00 75 1012.5
20260503172543 16 0 4.8 24.1 0.00 0.23 0.00 74 1012.5
20260503172042 16 0 3.2 17.7 0.00 0.23 0.00 74 1012.5
20260503171547 16 271 3.2 22.5 0.00 0.23 0.00 74 1012.4
20260503171045 16 0 0.0 22.5 0.00 0.23 0.00 74 1012.3
20260503170545 17 0 4.8 22.5 0.00 0.23 0.00 73 1012.3
20260503150542 18 188 0.0 16.1 0.00 0.23 0.00 60 1012.0
20260503131045 21 0 3.2 24.1 0.00 0.23 0.00 46 1012.0
20260503130545 21 194 4.8 24.1 0.00 0.23 0.00 46 1012.0